Powrót do katalogu

YUNYAO-1 32

AktywnyPogodaSSO
NORAD 61896·PAYLOAD·🇨🇳 China
Ta nazwa satelity nie została jeszcze potwierdzona przez oficjalne źródła.

Wystrzelony Nov 11, 2024 z Jiuquan Satellite Launch Center

Loading…

Następne Przeloty (najbliższe 24 godziny)

TLE

ŚwieżeSource: Space-Track

Epoka: Sep 14, 2026, 23:14 UTC

1 61896U 24205C   26257.96827322  .00006913  00000-0  37756-3 0  9994
2 61896  97.4042 326.2529 0050746  53.1929 307.3942 15.13505921101808

Śledź YUNYAO-1 32 w czasie rzeczywistym z AllMySat

Download on the App Store